Location: Pabrico
(37.5827°N, 122.0063°W)
Time: 22:51:38
(UTC+00:00)

Cosmos 1515 Rocket - Pass Details

Date: 13 April 2024
Orbit: 602 x 627 km, 82.5° (Epoch: 21 May)

Event Time Altitude Azimuth Distance (km) Brightness Sun altitude
Exits shadow 12:15:10 - 179° (S) 2,853 6.7 -15.8°
Reaches altitude 10° 12:17:17 10° 177° (S) 1,995 5.9 -15.4°
Maximum altitude 12:21:41 68° 95° (E) 677 3.9 -14.6°
Drops below altitude 10° 12:26:07 10° 13° (NNE) 2,010 6.7 -13.8°
Sets 12:28:22 0° 10° (N) 2,920 7.5 -13.4°
